Date String (YYYY-MM-DD hh:mm:ss) UTC,Instrument flags,Ambient pressure (hPa),Sample flow (lpm),Bypass flow (lpm),Sample temperature (°C),Ambient temperature (°C),ASC tube jacket temperature (°C),LED temperature (°C),Box temperature (°C),Sample RH (%),Span deviation,Mass concentration (μg/m³),Mass concentration (μg/m³),Mass concentration (μg/m³)
DateTimeUTC,F1_M11,P_M11,Q1_M11,Q2_M11,T1_M11,T2_M11,T3_M11,T4_M11,T5_M11,U1_M11,ZSPAN_M11,X0_M11,X2_M11,X1_M11
2023-03-07 05:00:00,,0825.5,5.01,0.00,22.1,20.1,00.0,30.9,23.5,16.3,0000.0,0008.97,0005.29,0004.99
2023-03-07 05:01:00,,0825.5,5.01,0.00,22.0,20.2,00.0,30.9,23.6,16.4,0000.0,0009.10,0005.41,0005.11
2023-03-07 05:02:00,,0825.4,4.99,0.00,22.1,21.3,00.0,30.9,23.8,16.3,0000.0,0009.25,0005.54,0005.24
2023-03-07 05:03:00,,0825.4,4.99,0.00,22.2,22.4,00.0,30.9,24.1,16.2,0000.0,0009.32,0005.65,0005.36
2023-03-07 05:04:00,,0825.4,5.04,0.00,22.3,22.8,00.0,30.9,24.3,16.0,0000.0,0009.07,0005.73,0005.46
2023-03-07 05:05:00,,0825.4,5.00,0.00,22.4,22.4,00.0,31.0,24.2,15.9,0000.0,0008.79,0005.81,0005.55
2023-03-07 05:06:00,,0825.4,4.97,0.00,22.4,21.9,00.0,31.0,24.1,15.8,0000.0,0008.94,0005.92,0005.65
2023-03-07 05:07:00,,0825.5,5.00,0.00,22.3,21.5,00.0,31.0,24.0,15.8,0000.0,0009.05,0005.98,0005.74
2023-03-07 05:08:00,,0825.4,5.00,0.00,22.3,21.2,00.0,31.0,24.0,15.8,0000.0,0009.21,0006.04,0005.82
2023-03-07 05:09:00,,0825.4,5.00,0.00,22.3,20.9,00.0,31.0,23.9,15.9,0000.0,0009.26,0006.11,0005.89
2023-03-07 05:10:00,,0825.3,5.00,0.00,22.2,20.7,00.0,31.0,23.9,15.9,0000.0,0009.27,0006.11,0005.89
2023-03-07 05:11:00,,0825.3,5.00,0.00,22.2,20.6,00.0,31.0,23.8,15.9,0000.0,0009.14,0006.07,0005.86
2023-03-07 05:12:00,,0825.4,4.99,0.00,22.2,20.5,00.0,31.0,23.8,16.0,0000.0,0009.13,0006.05,0005.84
2023-03-07 05:13:00,,0825.4,5.01,0.00,22.2,21.3,00.0,31.0,24.0,16.0,0000.0,0009.26,0006.03,0005.82
2023-03-07 05:14:00,,0825.4,4.98,0.00,22.3,22.5,00.0,31.0,24.2,15.9,0000.0,0009.29,0006.03,0005.81
2023-03-07 05:15:00,,0825.5,5.02,0.00,22.5,23.1,00.0,31.0,24.4,15.8,0000.0,0009.38,0006.05,0005.81
2023-03-07 05:16:00,,0825.5,4.98,0.00,22.5,22.6,00.0,31.1,24.4,15.8,0000.0,0009.42,0006.06,0005.81
2023-03-07 05:17:00,,0825.5,4.99,0.00,22.5,22.2,00.0,31.1,24.3,15.7,0000.0,0009.36,0006.02,0005.80
2023-03-07 05:18:00,,0825.3,4.98,0.00,22.5,21.7,00.0,31.1,24.2,15.8,0000.0,0009.51,0006.03,0005.80
2023-03-07 05:19:00,,0825.3,5.00,0.00,22.4,21.4,00.0,31.1,24.1,15.8,0000.0,0009.33,0006.04,0005.80
2023-03-07 05:20:00,,0825.3,4.98,0.00,22.4,21.1,00.0,31.1,24.1,15.8,0000.0,0009.53,0006.09,0005.82
2023-03-07 05:21:00,,0825.4,5.00,0.00,22.4,20.9,00.0,31.1,24.0,15.8,0000.0,0009.60,0006.12,0005.85
2023-03-07 05:22:00,,0825.3,5.00,0.00,22.4,20.7,00.0,31.1,24.0,15.9,0000.0,0009.61,0006.13,0005.86
2023-03-07 05:23:00,,0825.3,5.01,0.00,22.3,20.6,00.0,31.1,23.9,15.9,0000.0,0009.63,0006.17,0005.89
2023-03-07 05:24:00,,0825.3,5.00,0.00,22.3,20.5,00.0,31.1,23.8,16.0,0000.0,0009.51,0006.20,0005.91
2023-03-07 05:25:00,,0825.3,5.01,0.00,22.2,20.3,00.0,31.1,23.8,16.0,0000.0,0009.61,0006.26,0005.94
2023-03-07 05:26:00,,0825.3,4.99,0.00,22.2,20.8,00.0,31.1,23.9,16.0,0000.0,0009.58,0006.30,0006.00
2023-03-07 05:27:00,,0825.3,4.98,0.00,22.3,22.0,00.0,31.1,24.1,16.0,0000.0,0010.52,0006.34,0006.03
2023-03-07 05:28:00,,0825.3,5.04,0.00,22.5,23.0,00.0,31.1,24.4,15.9,0000.0,0010.86,0006.36,0006.06
2023-03-07 05:29:00,,0825.2,5.01,0.00,22.5,22.8,00.0,31.1,24.4,15.8,0000.0,0010.72,0006.41,0006.09
2023-03-07 05:30:00,,0825.2,4.99,0.00,22.5,22.3,00.0,31.2,24.4,15.8,0000.0,0010.67,0006.45,0006.14
2023-03-07 05:31:00,,0825.2,5.00,0.00,22.5,21.8,00.0,31.2,24.3,15.8,0000.0,0010.54,0006.46,0006.19
2023-03-07 05:32:00,,0825.2,5.01,0.00,22.5,21.4,00.0,31.2,24.2,15.9,0000.0,0010.59,0006.51,0006.23
2023-03-07 05:33:00,,0825.2,5.01,0.00,22.5,21.2,00.0,31.2,24.1,15.9,0000.0,0011.08,0006.56,0006.27
2023-03-07 05:34:00,,0825.2,5.00,0.00,22.4,21.0,00.0,31.2,24.1,15.9,0000.0,0011.28,0006.56,0006.30
2023-03-07 05:35:00,,0825.2,5.00,0.00,22.4,20.8,00.0,31.2,24.0,15.9,0000.0,0011.32,0006.59,0006.34
2023-03-07 05:36:00,,0825.1,4.99,0.00,22.4,20.7,00.0,31.2,24.0,16.0,0000.0,0011.21,0006.57,0006.36
2023-03-07 05:37:00,,0825.0,4.97,0.00,22.3,20.6,00.0,31.2,23.9,16.0,0000.0,0011.19,0006.57,0006.36
2023-03-07 05:38:00,,0825.1,5.01,0.00,22.3,20.5,00.0,31.1,23.9,16.0,0000.0,0010.25,0006.61,0006.39
2023-03-07 05:39:00,,0825.1,5.01,0.00,22.3,20.4,00.0,31.1,23.9,16.1,0000.0,0009.96,0006.68,0006.45
2023-03-07 05:40:00,,0825.1,5.00,0.00,22.3,21.1,00.0,31.1,24.0,16.0,0000.0,0010.10,0006.72,0006.48
2023-03-07 05:41:00,,0825.1,5.02,0.00,22.4,22.2,00.0,31.1,24.3,16.0,0000.0,0010.16,0006.75,0006.50
2023-03-07 05:42:00,,0825.1,5.02,0.00,22.5,23.0,00.0,31.1,24.5,15.9,0000.0,0010.21,0006.77,0006.50
2023-03-07 05:43:00,,0825.1,5.01,0.00,22.6,22.8,00.0,31.2,24.5,15.8,0000.0,0010.17,0006.76,0006.50
2023-03-07 05:44:00,,0825.1,4.99,0.00,22.6,22.3,00.0,31.2,24.4,15.8,0000.0,0009.73,0006.74,0006.49
2023-03-07 05:45:00,,0825.1,4.99,0.00,22.6,21.9,00.0,31.2,24.2,15.8,0000.0,0009.51,0006.77,0006.49
2023-03-07 05:46:00,,0825.1,5.01,0.00,22.6,21.5,00.0,31.2,24.2,15.8,0000.0,0009.59,0006.78,0006.49
2023-03-07 05:47:00,,0825.1,5.01,0.00,22.5,21.3,00.0,31.2,24.2,15.8,0000.0,0009.69,0006.78,0006.49
2023-03-07 05:48:00,,0825.1,5.00,0.00,22.5,21.1,00.0,31.2,24.1,15.9,0000.0,0009.66,0006.78,0006.50
2023-03-07 05:49:00,,0825.1,5.00,0.00,22.4,20.9,00.0,31.2,24.1,15.9,0000.0,0009.60,0006.76,0006.50
2023-03-07 05:50:00,,0825.2,5.00,0.00,22.4,20.8,00.0,31.2,24.0,15.9,0000.0,0009.56,0006.73,0006.49
2023-03-07 05:51:00,,0825.2,5.01,0.00,22.4,20.7,00.0,31.2,24.0,16.0,0000.0,0009.47,0006.71,0006.49
2023-03-07 05:52:00,,0825.2,5.00,0.00,22.4,20.6,00.0,31.2,24.0,16.0,0000.0,0009.47,0006.72,0006.50
2023-03-07 05:53:00,,0825.2,4.99,0.00,22.4,20.5,00.0,31.2,24.0,16.0,0000.0,0009.51,0006.73,0006.50
2023-03-07 05:54:00,,0825.2,5.01,0.00,22.3,20.5,00.0,31.2,23.9,16.1,0000.0,0009.54,0006.75,0006.52
2023-03-07 05:55:00,,0825.2,5.00,0.00,22.3,20.6,00.0,31.1,23.9,16.1,0000.0,0009.58,0006.76,0006.53
2023-03-07 05:56:00,,0825.1,4.98,0.00,22.4,21.7,00.0,31.1,24.2,16.0,0000.0,0009.56,0006.75,0006.54
2023-03-07 05:57:00,,0825.0,4.99,0.00,22.5,22.7,00.0,31.1,24.4,16.0,0000.0,0009.43,0006.73,0006.56
2023-03-07 05:58:00,,0825.0,5.00,0.00,22.6,22.9,00.0,31.2,24.5,15.9,0000.0,0009.34,0006.74,0006.57
2023-03-07 05:59:00,,0824.9,5.00,0.00,22.6,22.5,00.0,31.2,24.5,15.8,0000.0,0009.42,0006.78,0006.58
